DW0975 Weather Reports


time (UTC)temp
C
wind
direction
speed
KPH
gust
KPH
rain 1hr
cm
rain 24hr
cm
rain mn
cm
humidity
%
barometer
mb
20260504050504 11 19 25.7 40.2 0.00 0.00 0.00 42 1013.4
20260504050004 11 338 25.7 43.5 0.00 0.00 0.00 41 1013.3
20260504045504 12 327 30.6 54.7 0.00 0.00 0.00 41 1013.2
20260504045103 12 360 32.2 54.7 0.00 0.00 0.00 41 1013.2
20260504044506 12 360 32.2 45.1 0.00 0.00 0.00 40 1013.0
20260504044003 12 355 32.2 49.9 0.00 0.00 0.00 39 1012.7
20260504043502 13 355 32.2 53.1 0.00 0.00 0.00 39 1012.5
20260504043004 13 346 37.0 53.1 0.00 0.00 0.00 39 1012.3
20260504042502 13 355 20.9 29.0 0.00 0.00 0.00 39 1011.9
20260504042003 13 20 19.3 27.4 0.00 0.00 0.00 39 1011.7
20260504041501 13 350 16.1 24.1 0.00 0.00 0.00 39 1011.5
20260504041001 14 336 17.7 24.1 0.00 0.00 0.00 39 1011.4
20260504040502 14 355 16.1 24.1 0.00 0.00 0.00 39 1011.3
20260504040107 14 350 16.1 24.1 0.00 0.00 0.00 39 1011.2
20260504035601 14 5 17.7 27.4 0.00 0.00 0.00 39 1011.1
20260504035100 14 350 16.1 24.1 0.00 0.00 0.00 38 1010.9
20260504034605 15 351 17.7 24.1 0.00 0.00 0.00 38 1011.0
20260504034100 15 355 16.1 24.1 0.00 0.00 0.00 38 1010.8
20260504033600 15 355 14.5 24.1 0.00 0.00 0.00 38 1010.7
20260504033115 15 19 12.9 24.1 0.00 0.00 0.00 37 1010.5
20260504032601 15 346 16.1 22.5 0.00 0.00 0.00 37 1010.4
20260504032100 16 355 14.5 24.1 0.00 0.00 0.00 37 1010.4
20260504031559 16 5 16.1 32.2 0.00 0.00 0.00 36 1010.3
20260504031059 16 13 17.7 29.0 0.00 0.00 0.00 36 1010.2
20260504030559 16 355 19.3 29.0 0.00 0.00 0.00 35 1010.0
20260504030058 16 355 16.1 30.6 0.00 0.00 0.00 35 1009.8
20260504025558 17 342 19.3 30.6 0.00 0.00 0.00 34 1009.7
20260504025058 17 5 19.3 30.6 0.00 0.00 0.00 33 1009.5
20260504024605 17 323 20.9 30.6 0.00 0.00 0.00 32 1009.4
20260504024057 18 343 14.5 25.7 0.00 0.00 0.00 30 1009.3
20260504023557 18 341 16.1 29.0 0.00 0.00 0.00 29 1009.1
20260504023057 18 355 19.3 29.0 0.00 0.00 0.00 28 1009.1
20260504022556 19 333 19.3 25.7 0.00 0.00 0.00 27 1009.0
20260504022056 20 336 17.7 24.1 0.00 0.00 0.00 24 1008.9
20260504021556 20 355 11.3 17.7 0.00 0.00 0.00 23 1008.8
20260504021055 20 355 11.3 17.7 0.00 0.00 0.00 23 1008.8
20260504020555 20 355 9.7 17.7 0.00 0.00 0.00 23 1008.8
20260504020055 20 331 11.3 16.1 0.00 0.00 0.00 23 1008.7
20260504015555 21 348 11.3 19.3 0.00 0.00 0.00 22 1008.8
20260504015058 21 5 9.7 19.3 0.00 0.00 0.00 22 1008.8
20260504014555 21 348 12.9 17.7 0.00 0.00 0.00 22 1008.8
20260504014058 21 343 9.7 17.7 0.00 0.00 0.00 22 1008.9
20260504013554 21 360 8.0 22.5 0.00 0.00 0.00 22 1008.9
20260504013054 21 344 12.9 22.5 0.00 0.00 0.00 22 1008.8
20260504012554 22 314 14.5 22.5 0.00 0.00 0.00 22 1008.8
20260504012053 22 327 16.1 24.1 0.00 0.00 0.00 21 1008.9
20260504011553 22 344 17.7 24.1 0.00 0.00 0.00 21 1008.9
20260504011052 22 337 11.3 20.9 0.00 0.00 0.00 21 1008.8
20260504010552 22 322 11.3 20.9 0.00 0.00 0.00 21 1008.9
20260504010057 22 348 16.1 29.0 0.00 0.00 0.00 21 1008.9
20260504005553 22 326 17.7 29.0 0.00 0.00 0.00 21 1008.8
20260504005055 23 329 14.5 25.7 0.00 0.00 0.00 21 1008.9
20260504004551 23 315 16.1 29.0 0.00 0.00 0.00 21 1009.0
20260504004050 23 302 20.9 29.0 0.00 0.00 0.00 21 1009.1
20260504003552 23 305 19.3 29.0 0.00 0.00 0.00 21 1009.0
20260504003051 23 331 17.7 27.4 0.00 0.00 0.00 21 1009.1
20260504002549 23 341 17.7 27.4 0.00 0.00 0.00 21 1009.1
20260504002049 23 342 19.3 24.1 0.00 0.00 0.00 20 1009.2
20260504001607 23 312 16.1 25.7 0.00 0.00 0.00 21 1009.3
20260504001048 23 298 19.3 25.7 0.00 0.00 0.00 20 1009.4
20260504000547 23 324 9.7 29.0 0.00 0.00 0.00 21 1009.4
20260504000049 23 290 20.9 33.8 0.00 0.00 0.00 21 1009.5
20260503235549 23 297 22.5 30.6 0.00 0.00 0.00 21 1009.6
20260503235046 23 294 24.1 35.4 0.00 0.00 0.00 21 1009.4
20260503234546 23 323 17.7 30.6 0.00 0.00 0.00 21 1009.4
20260503234045 23 304 16.1 32.2 0.00 0.00 0.00 20 1009.6
20260503233545 23 315 20.9 30.6 0.00 0.00 0.00 21 1009.5
20260503233044 23 289 22.5 30.6 0.00 0.00 0.00 21 1009.6
20260503232546 23 298 11.3 30.6 0.00 0.00 0.00 20 1009.6
20260503232045 23 308 22.5 35.4 0.00 0.00 0.00 21 1009.7
20260503231543 23 298 20.9 35.4 0.00 0.00 0.00 21 1009.7
20260503231045 23 323 17.7 25.7 0.00 0.00 0.00 20 1009.7
20260503230543 23 290 17.7 32.2 0.00 0.00 0.00 20 1009.9
20260503230046 23 290 20.9 32.2 0.00 0.00 0.00 20 1009.8
20260503225541 23 297 24.1 33.8 0.00 0.00 0.00 20 1009.9
20260503225041 23 246 25.7 33.8 0.00 0.00 0.00 19 1009.9
20260503224540 23 280 17.7 29.0 0.00 0.00 0.00 20 1009.9
20260503224039 23 300 14.5 25.7 0.00 0.00 0.00 20 1010.0
20260503223542 23 314 9.7 30.6 0.00 0.00 0.00 19 1010.1
20260503223041 23 286 20.9 30.6 0.00 0.00 0.00 19 1010.1
20260503222536 23 250 14.5 22.5 0.00 0.00 0.00 19 1010.2
20260503222035 23 284 9.7 20.9 0.00 0.00 0.00 20 1010.3
20260503221541 23 275 14.5 20.9 0.00 0.00 0.00 19 1010.4
20260503221036 23 254 8.0 27.4 0.00 0.00 0.00 19 1010.5
20260503220535 23 327 14.5 27.4 0.00 0.00 0.00 19 1010.5
20260503220040 23 298 8.0 33.8 0.00 0.00 0.00 19 1010.6
20260503215534 23 316 22.5 33.8 0.00 0.00 0.00 19 1010.7
20260503215032 23 284 14.5 24.1 0.00 0.00 0.00 19 1010.9
20260503214530 23 277 17.7 24.1 0.00 0.00 0.00 19 1010.9
20260503214030 23 286 12.9 19.3 0.00 0.00 0.00 19 1011.1
20260503213531 22 329 6.4 25.7 0.00 0.00 0.00 19 1011.2
20260503213032 22 285 16.1 38.6 0.00 0.00 0.00 20 1011.3
20260503212531 22 281 22.5 38.6 0.00 0.00 0.00 18 1011.4
20260503212027 22 232 24.1 33.8 0.00 0.00 0.00 19 1011.3
20260503211526 22 239 12.9 27.4 0.00 0.00 0.00 19 1011.4
20260503211026 22 276 12.9 29.0 0.00 0.00 0.00 19 1011.5
20260503210526 22 273 17.7 29.0 0.00 0.00 0.00 19 1011.7
20260503210024 22 313 14.5 29.0 0.00 0.00 0.00 19 1011.8
20260503205525 22 295 16.1 29.0 0.00 0.00 0.00 20 1011.9
20260503205027 22 279 14.5 29.0 0.00 0.00 0.00 19 1012.1
20260503204525 22 279 9.7 33.8 0.00 0.00 0.00 20 1012.1
20260503204021 22 285 22.5 33.8 0.00 0.00 0.00 19 1012.1
20260503203521 21 290 3.2 22.5 0.00 0.00 0.00 20 1012.2
20260503203020 22 226 11.3 30.6 0.00 0.00 0.00 20 1012.3
20260503202523 22 257 24.1 30.6 0.00 0.00 0.00 20 1012.3
20260503202019 21 229 17.7 30.6 0.00 0.00 0.00 20 1012.3
20260503201527 21 249 17.7 29.0 0.00 0.00 0.00 21 1012.3
20260503201017 21 247 16.1 22.5 0.00 0.00 0.00 21 1012.5
20260503200516 21 292 8.0 30.6 0.00 0.00 0.00 22 1012.5
20260503200017 21 232 16.1 30.6 0.00 0.00 0.00 21 1012.7
20260503195514 21 332 8.0 24.1 0.00 0.00 0.00 22 1012.7
20260503195014 21 295 14.5 27.4 0.00 0.00 0.00 22 1012.9
20260503194513 21 308 19.3 29.0 0.00 0.00 0.00 22 1012.9
20260503194012 21 254 17.7 29.0 0.00 0.00 0.00 23 1013.0
20260503193518 20 288 6.4 16.1 0.00 0.00 0.00 23 1013.1
20260503193012 20 205 9.7 22.5 0.00 0.00 0.00 21 1013.1
20260503192510 20 257 14.5 25.7 0.00 0.00 0.00 22 1013.3
20260503192015 21 251 19.3 25.7 0.00 0.00 0.00 21 1013.3
20260503191509 20 267 14.5 29.0 0.00 0.00 0.00 22 1013.4
20260503191009 20 291 19.3 29.0 0.00 0.00 0.00 22 1013.5
20260503190509 20 273 12.9 22.5 0.00 0.00 0.00 24 1013.6
20260503190017 20 246 11.3 25.7 0.00 0.00 0.00 23 1013.7
20260503185507 20 253 19.3 33.8 0.00 0.00 0.00 23 1013.7
20260503185009 21 274 24.1 33.8 0.00 0.00 0.00 24 1013.9
20260503184507 21 240 24.1 32.2 0.00 0.00 0.00 23 1013.9
20260503184005 20 240 14.5 22.5 0.00 0.00 0.00 23 1014.1
20260503183507 20 296 14.5 20.9 0.00 0.00 0.00 23 1014.1
20260503183006 20 324 6.4 20.9 0.00 0.00 0.00 25 1014.1
20260503182501 20 232 11.3 25.7 0.00 0.00 0.00 24 1014.2
20260503182100 20 257 16.1 25.7 0.00 0.00 0.00 25 1014.3
20260503181623 20 329 8.0 17.7 0.00 0.00 0.00 26 1014.3
20260503181059 19 280 11.3 24.1 0.00 0.00 0.00 26 1014.4
20260503180558 19 294 3.2 24.1 0.00 0.00 0.00 26 1014.5
20260503180134 20 283 17.7 24.1 0.00 0.00 0.00 25 1014.6
20260503175559 19 347 12.9 19.3 0.00 0.00 0.00 26 1014.6
20260503175054 19 298 9.7 20.9 0.00 0.00 0.00 27 1014.8
20260503174557 19 306 14.5 20.9 0.00 0.00 0.00 26 1014.7
20260503174052 18 301 11.3 27.4 0.00 0.00 0.00 27 1014.8
20260503173551 18 286 16.1 27.4 0.00 0.00 0.00 27 1014.9
20260503173057 18 310 8.0 27.4 0.00 0.00 0.00 27 1014.9
20260503172553 18 323 8.0 29.0 0.00 0.00 0.00 27 1015.1
20260503172049 18 304 17.7 29.0 0.00 0.00 0.00 28 1015.0
20260503171549 18 306 14.5 22.5 0.00 0.00 0.00 28 1015.1
20260503171049 18 336 12.9 24.1 0.00 0.00 0.00 28 1015.1
20260503170548 17 315 14.5 20.9 0.00 0.00 0.00 29 1015.1
20260503150524 15 350 16.1 22.5 0.00 0.00 0.00 37 1015.6
20260503131051 3 93 1.6 4.8 0.00 0.00 0.00 84 1016.1
20260503130550 3 103 1.6 4.8 0.00 0.00 0.00 84 1016.1
20260503110536 1 52 0.0 0.0 0.00 0.00 0.00 88 1016.2
20260503081517 2 138 3.2 4.8 0.00 0.00 0.00 87 1016.8
20260503081013 2 135 0.0 3.2 0.00 0.00 0.00 87 1016.8
20260503080513 2 140 0.0 0.0 0.00 0.00 0.00 87 1016.9
20260503072507 3 148 0.0 4.8 0.00 0.00 0.00 85 1016.8
20260503072007 3 153 3.2 4.8 0.00 0.00 0.00 85 1016.8
20260503071506 3 190 1.6 4.8 0.00 0.00 0.00 85 1016.9
20260503071005 3 190 1.6 4.8 0.00 0.00 0.00 86 1016.8
20260503070503 3 267 0.0 3.2 0.00 0.00 0.00 85 1016.7